Theta_e
313 313 313 313 314 313 313 313 313 314 314 315 315 316 316 316 314 308 302 311 315 325 323 310 304 303 303 300 303 302 291 290 294 297 300 307 303 309 311 307 314 316 314 317 317
313 313 313 313 313 313 313 313 313 313 314 314 315 315 315 315 307 304 313 326 331 330 307 304 299 299 297 299 300 297 290 294 299 301 300 304 305 306 306 306 307 310 317 318 317
312 312 313 312 312 312 312 312 313 314 314 314 314 314 314 313 303 308 328 327 330 324 303 302 301 298 293 296 297 296 294 298 300 303 303 303 305 307 304 301 306 307 312 315 314
312 312 312 312 312 312 312 312 313 313 313 313 313 314 314 308 296 306 333 330 328 310 307 308 304 294 290 291 295 292 298 300 301 303 303 302 306 305 304 305 311 311 313 314 312
312 312 312 312 312 312 312 312 312 312 312 312 313 314 308 300 304 316 332 328 317 309 307 305 299 292 290 292 294 291 295 300 302 302 302 304 303 303 304 307 310 310 313 312 312
312 312 312 312 312 312 312 312 311 311 312 312 313 314 305 290 305 321 316 313 308 306 309 306 304 299 294 292 291 295 295 296 297 298 299 300 302 303 305 308 308 309 309 312 312
312 311 311 312 312 312 313 312 313 314 313 313 314 311 303 295 311 317 311 308 311 313 309 307 304 300 297 295 296 297 292 294 295 296 296 298 295 297 302 304 304 305 308 310 313
312 312 311 312 312 312 313 314 314 314 315 313 314 308 297 309 307 305 310 309 311 311 310 307 305 299 295 295 296 292 289 285 292 297 298 296 291 299 301 301 302 303 305 310 312
312 312 311 312 312 312 314 313 314 316 317 315 305 303 299 317 311 311 307 307 310 310 307 310 302 297 296 289 286 287 284 287 290 296 295 294 292 298 301 300 300 302 302 305 309
312 311 311 311 312 313 313 313 313 313 313 313 310 299 305 307 310 308 306 308 305 304 303 301 294 291 289 286 281 284 285 288 288 293 293 291 292 298 300 299 300 301 302 302 303
311 311 311 311 311 312 308 304 302 303 305 302 304 302 308 315 311 305 306 305 305 300 292 295 289 286 290 291 293 291 290 289 293 295 293 292 292 295 297 297 298 299 298 300 301
311 310 311 311 311 310 304 302 306 304 296 308 308 306 311 313 307 305 309 300 298 292 294 291 287 294 296 295 294 293 290 289 292 295 293 292 291 295 296 297 297 297 298 300 300
311 310 310 311 309 306 303 308 313 308 296 302 306 307 308 310 306 304 306 301 296 292 292 289 293 298 296 294 293 292 289 289 289 293 293 291 289 292 296 297 299 299 300 300 301
310 310 310 309 305 304 303 310 308 307 291 298 303 305 306 304 299 307 307 302 296 293 293 291 297 296 294 292 293 287 296 295 293 289 284 291 282 289 292 294 297 297 296 297 300
310 310 309 308 298 300 307 309 308 306 281 304 301 308 302 299 301 303 307 301 295 295 293 292 293 292 291 293 298 293 298 295 294 288 284 286 281 288 291 291 294 295 297 298 300
309 309 308 306 302 305 308 309 305 292 284 299 300 298 296 298 300 301 302 303 301 295 294 294 298 295 294 299 299 300 295 292 291 285 280 286 283 286 288 291 293 298 301 302 302
309 309 306 305 301 306 306 304 289 285 301 296 296 298 295 295 297 298 296 294 291 285 287 292 293 296 301 295 297 294 288 281 278 280 281 288 284 286 292 295 297 298 299 301 303
307 306 306 305 303 306 305 297 284 293 295 301 298 297 293 296 295 296 294 290 294 292 287 285 284 294 301 295 291 290 287 279 275 275 280 289 284 288 295 298 300 301 299 300 301
306 302 307 307 306 306 299 288 290 295 300 296 295 291 291 295 293 293 291 292 294 294 287 285 287 297 299 299 296 291 287 293 285 285 281 283 288 294 297 297 300 300 301 300 298
299 300 306 313 309 304 294 290 294 301 299 298 290 294 287 289 289 289 290 297 296 297 295 291 284 294 297 298 296 292 294 283 285 272 277 282 285 285 291 293 298 297 297 300 301
297 296 309 316 311 300 289 292 297 303 299 296 292 290 290 289 290 290 292 296 299 296 295 292 288 289 292 289 287 287 287 287 285 281 274 277 280 293 292 295 295 299 300 298 302
293 290 304 309 296 297 294 300 298 299 301 298 296 294 290 292 291 291 291 294 299 297 291 294 287 283 287 293 295 292 289 287 279 280 285 283 283 296 296 297 296 296 301 302 302
294 294 305 305 290 292 296 297 299 298 297 296 295 295 295 291 286 293 293 298 298 296 292 293 284 278 280 284 289 288 291 291 289 284 280 275 279 295 296 295 297 297 300 302 304
293 292 298 299 298 293 292 294 295 302 299 296 294 295 291 289 292 288 290 295 297 298 304 295 285 281 277 281 284 284 288 290 288 278 279 283 285 290 293 294 297 297 297 301 303
298 294 294 289 291 292 294 294 292 293 297 296 292 292 289 285 288 288 291 292 295 301 294 288 282 285 286 289 290 288 288 288 286 287 282 285 285 291 293 293 295 297 299 299 300
297 294 294 292 294 294 294 292 292 293 294 291 289 290 291 286 287 286 288 287 288 291 287 288 282 284 284 289 288 287 288 288 288 289 288 289 288 294 297 297 296 297 300 300 301
299 301 296 293 293 291 292 293 293 294 295 296 293 290 289 290 293 292 290 290 290 287 285 284 282 281 278 287 286 281 287 290 291 292 290 284 291 295 294 297 297 296 299 299 301
Wind_Speed
16 16 15 15 14 14 14 14 14 14 14 14 14 13 13 14 15 3 8 13 9 10 2 5 3 3 3 4 4 2 2 6 7 6 7 17 5 7 8 7 14 9 3 7 5
17 16 14 14 13 14 15 14 14 14 13 13 13 12 12 13 4 8 13 12 13 7 4 5 3 4 2 5 3 5 4 7 5 5 7 15 11 12 7 13 7 2 4 5 4
17 16 16 15 15 14 15 14 14 14 13 13 12 12 12 10 4 7 7 15 9 7 4 2 3 1 4 2 5 5 7 4 7 9 9 17 23 10 7 9 8 7 9 7 6
18 17 16 16 15 15 14 15 15 14 13 12 11 11 12 2 1 3 4 11 7 5 2 0 1 2 3 5 5 6 8 12 14 15 15 18 20 21 9 11 10 8 8 2 7
18 17 17 16 16 15 14 14 14 13 12 11 10 10 3 1 10 5 10 9 5 4 3 2 1 0 3 4 4 5 7 12 17 18 17 19 21 23 24 9 9 9 9 9 9
19 19 17 16 15 15 14 14 13 12 11 9 8 8 2 3 5 9 8 6 5 4 4 6 6 9 4 4 3 5 5 9 8 10 7 13 19 15 27 8 8 7 8 10 10
19 19 18 17 15 14 12 13 12 11 10 7 5 4 3 14 2 8 9 7 6 5 3 5 3 7 1 7 1 6 7 8 4 4 5 3 8 14 9 5 9 9 9 9 11
19 18 19 17 16 15 14 13 12 13 10 5 3 2 8 5 3 4 6 8 8 8 9 4 2 1 3 2 9 6 4 4 5 6 7 6 16 17 10 7 17 8 9 10 11
20 19 20 18 16 15 15 14 14 10 2 5 2 1 11 11 6 12 11 10 11 6 5 5 3 3 4 3 6 5 5 9 9 5 5 5 18 12 10 10 13 18 8 10 10
21 20 19 18 17 14 15 14 4 1 3 5 6 3 6 3 4 5 9 12 7 3 0 0 5 1 3 5 5 6 5 7 7 7 4 8 13 16 14 9 16 18 17 9 9
22 21 20 18 17 13 8 4 3 1 3 9 7 6 11 4 3 6 6 3 1 2 2 4 3 6 12 10 13 8 12 16 16 9 3 7 8 13 8 8 15 16 9 9 9
24 23 22 21 18 12 1 1 7 3 10 17 19 15 17 8 5 6 6 6 6 6 2 5 7 15 10 11 11 13 16 16 10 6 4 9 11 15 9 8 8 9 8 8 4
23 22 23 23 24 3 4 7 7 6 5 10 7 8 9 9 10 13 10 6 6 5 7 9 12 10 10 12 13 11 7 7 11 6 4 6 10 12 15 6 9 8 8 6 10
23 22 20 24 1 3 5 6 8 5 5 8 6 6 6 9 6 11 12 10 6 13 10 8 13 11 10 7 4 5 5 13 13 7 11 6 14 9 8 8 8 8 8 8 8
24 21 19 7 5 2 6 9 6 6 3 4 4 4 7 10 3 3 8 4 14 11 8 13 6 8 7 10 2 6 3 4 7 12 4 6 2 12 4 10 10 10 9 9 10
24 21 15 2 3 9 9 10 5 6 5 2 3 4 5 3 4 2 4 4 6 8 7 13 7 6 10 2 5 3 1 3 2 3 8 14 5 14 10 11 6 6 12 12 11
28 25 7 3 5 2 5 4 6 3 7 5 3 4 3 4 5 6 8 7 11 3 7 9 11 10 3 1 5 9 7 6 5 3 14 12 7 17 11 9 13 14 10 16 17
29 21 4 5 5 3 4 5 2 4 4 12 5 5 1 5 6 7 7 4 7 1 1 5 4 1 3 4 5 3 6 5 6 5 9 6 10 19 5 10 14 7 7 10 17
18 5 2 5 6 3 5 2 5 4 5 2 4 2 4 5 1 6 4 4 2 2 5 1 2 3 1 5 6 3 5 4 3 3 4 6 9 15 19 13 8 8 7 16 8
6 5 5 3 7 5 5 5 5 2 11 4 1 1 2 4 4 5 3 2 2 2 4 2 4 3 4 3 3 3 2 1 1 3 6 5 5 9 7 8 8 8 8 13 11
5 6 5 7 4 5 3 6 6 8 10 5 3 4 4 3 4 4 5 9 5 2 4 4 4 4 2 1 2 1 0 4 1 3 4 5 5 5 2 5 3 3 5 6 9
2 5 3 5 2 2 3 4 11 7 7 3 3 1 3 2 3 4 5 5 10 8 3 5 6 3 7 6 4 3 5 5 4 3 4 2 9 14 9 9 6 2 5 4 1
4 4 6 4 2 3 7 8 6 5 5 7 5 4 2 0 3 3 8 9 7 6 4 6 1 2 7 6 3 3 5 7 2 3 6 4 7 4 8 12 12 7 7 5 6
4 4 5 4 2 2 5 6 11 10 7 4 2 4 5 3 1 5 8 5 10 5 0 6 4 8 7 8 5 5 6 9 9 5 5 9 15 14 12 12 12 12 5 10 17
1 3 3 4 5 8 7 10 14 12 8 8 5 8 5 3 6 6 3 4 7 1 5 3 4 5 6 8 10 12 13 12 10 15 8 15 10 2 7 7 6 7 11 6 4
3 3 5 5 8 8 6 3 9 11 8 9 7 12 6 5 6 12 3 2 5 2 3 3 4 2 4 6 7 11 13 16 17 17 14 7 5 7 7 7 6 7 7 5 4
2 3 1 3 3 4 3 5 12 11 9 8 14 15 14 13 6 7 8 7 8 5 3 2 2 3 5 3 7 7 3 6 7 7 4 3 6 6 6 6 7 5 4 5 5
Wind_Direction
333 331 329 324 322 320 318 317 317 317 316 318 320 322 320 320 315 263 225 220 193 222 211 296 304 242 163 227 215 110 112 220 224 227 262 293 298 307 298 268 211 245 159 198 159
333 328 324 320 317 314 313 314 312 312 312 315 318 321 318 327 270 239 238 218 219 184 192 205 234 185 195 214 221 155 189 225 210 246 261 279 277 300 331 302 296 309 74 117 91
337 332 328 324 320 318 315 311 311 311 313 315 319 319 319 326 311 256 231 213 191 179 216 197 241 299 215 188 223 206 232 243 264 251 256 269 278 278 242 278 260 242 241 185 130
340 334 329 324 319 316 313 311 311 312 314 315 316 315 312 277 231 299 112 171 179 191 251 196 249 183 221 222 219 248 261 238 248 245 253 262 274 272 223 233 248 275 260 127 152
343 338 332 327 321 316 313 311 311 312 312 312 312 315 343 328 249 209 149 158 162 171 218 162 321 161 236 234 280 185 258 251 245 247 246 254 259 266 265 214 236 262 299 221 188
341 341 337 330 323 316 314 311 308 307 309 309 304 310 234 277 238 156 151 156 221 193 190 155 232 219 228 223 147 283 276 272 266 253 254 255 265 265 266 171 208 226 257 261 182
341 340 339 335 328 319 313 309 305 303 303 295 285 273 259 236 329 154 166 203 188 205 235 209 196 41 349 340 0 290 311 314 270 242 246 237 277 251 272 276 189 211 231 242 259
344 341 340 339 332 323 314 305 300 299 295 264 241 264 249 247 219 239 206 287 266 207 215 287 305 41 49 315 349 340 2 332 283 312 284 149 267 272 276 270 285 209 211 224 233
344 343 341 339 336 329 314 296 293 299 205 172 153 176 268 300 184 217 185 215 235 258 236 239 109 170 343 59 0 337 259 285 305 252 253 178 277 264 264 243 258 276 227 210 226
343 341 341 338 334 329 312 295 245 342 175 196 262 327 274 239 221 211 178 197 232 298 231 267 49 135 1 84 238 248 265 263 272 288 210 264 257 273 277 232 245 246 256 209 203
343 339 337 335 332 330 342 19 24 85 236 202 213 244 284 286 333 190 192 179 240 50 161 275 76 240 240 218 237 245 259 264 273 262 273 244 262 284 273 285 263 237 214 251 242
337 337 336 330 326 322 261 148 234 233 295 226 234 223 257 275 294 221 156 150 163 211 250 354 248 248 241 252 241 248 251 260 262 252 250 288 277 283 284 260 232 223 216 216 214
332 333 333 327 318 117 202 228 251 24 296 296 219 211 218 204 238 240 160 195 182 203 218 203 238 257 251 256 260 259 239 262 262 264 270 329 294 292 291 255 255 225 224 204 197
328 328 330 327 345 341 259 285 301 158 22 279 193 226 200 187 236 217 184 168 194 212 225 235 251 254 281 286 282 293 352 7 326 299 275 163 270 276 272 295 286 280 295 257 223
323 325 321 314 298 273 248 330 324 60 344 216 169 165 151 155 181 272 177 149 218 218 141 233 225 250 270 267 86 251 347 3 344 326 291 248 198 268 331 293 278 287 297 289 286
320 320 325 85 193 249 310 311 57 52 268 228 125 180 133 233 250 307 183 206 224 219 230 245 245 199 244 268 185 274 338 360 9 64 276 295 204 268 251 256 266 262 287 286 281
320 316 300 248 220 344 322 35 46 157 295 34 123 102 231 259 241 226 236 210 216 192 243 266 265 266 105 34 13 48 46 334 334 291 261 259 260 249 270 263 242 259 298 295 293
317 320 194 219 244 350 34 51 173 261 286 344 11 357 334 359 345 356 4 337 258 350 20 198 304 76 134 124 150 124 139 176 240 253 283 10 251 255 282 291 263 257 261 318 277
319 331 242 250 197 109 71 93 219 247 324 349 352 333 347 11 350 14 322 255 81 143 171 50 239 6 283 159 137 143 181 173 220 325 286 233 276 277 273 283 264 233 36 342 346
343 339 267 211 137 72 81 234 251 291 326 306 147 289 342 310 323 358 288 229 125 109 105 264 310 311 58 94 261 149 154 197 288 261 256 268 261 255 0 354 11 352 34 28 338
20 346 280 118 84 60 178 236 268 301 21 318 288 260 255 338 302 290 260 323 30 312 142 157 154 259 49 273 173 251 75 30 190 181 221 268 267 323 319 279 74 28 10 36 17
31 327 281 357 54 205 216 239 344 330 2 317 337 136 166 252 265 282 255 249 336 327 242 187 153 200 225 251 188 140 166 161 153 260 231 231 241 258 244 289 298 337 158 202 144
326 264 306 98 238 2 326 321 282 334 359 331 291 278 50 86 325 256 303 317 335 351 208 182 193 30 337 352 329 223 194 184 151 81 212 169 262 279 314 302 283 228 218 187 240
330 318 327 14 47 42 340 310 327 320 349 357 359 26 16 343 40 285 310 315 351 336 318 111 156 166 210 220 195 249 242 200 179 179 222 221 273 301 318 335 329 310 278 213 188
258 283 10 328 329 328 329 315 335 332 5 334 329 352 320 281 301 271 289 334 340 53 6 85 210 222 236 250 271 282 281 276 232 239 220 269 252 15 335 291 326 347 327 287 16
307 348 351 300 295 349 327 292 299 322 334 312 341 318 298 246 235 288 278 213 227 338 39 6 276 321 234 249 279 291 289 279 269 264 241 245 267 23 302 292 321 341 324 6 32
341 316 294 283 296 289 240 319 313 312 296 321 320 317 298 283 263 232 210 206 218 216 217 208 151 13 269 309 307 299 308 279 290 56 345 46 7 327 277 308 309 329 343 347 354